Location: Vienna
(48.2082°N, 16.3738°E)
Time: 11:30:44
(UTC+01:00)

ISS - Visible Passes

Search period start: 21 February 2020 00:00
Search period end: 02 March 2020 00:00
Orbit: 415 x 422 km, 51.6° (Epoch: 22 February)

Date Brightness Start Highest point End Pass type
(mag) Time Alt. Az. Time Alt. Az. Time Alt. Az.
21 Feb -0.9 05:56:16 10° S 05:58:27 16° SE 06:00:39 10° E visible
22 Feb -0.5 05:10:27 10° SE 05:11:04 10° SE 05:11:41 10° ESE visible
23 Feb -2.3 05:56:34 10° SSW 05:59:42 36° SE 06:02:50 10° ENE visible
24 Feb -1.7 05:09:44 12° SSW 05:12:11 24° SE 05:14:59 10° E visible
25 Feb -1.3 04:24:23 16° SE 04:24:43 16° SE 04:26:53 10° E visible
25 Feb -3.6 05:57:43 10° WSW 06:01:04 78° SSE 06:04:28 10° ENE visible
26 Feb -3.2 05:11:51 26° SW 05:13:27 54° SSE 05:16:46 10° ENE visible
27 Feb -2.4 04:26:15 34° SE 04:26:15 34° SE 04:29:00 10° ENE visible
27 Feb -3.6 05:59:13 10° W 06:02:34 61° NNW 06:05:57 10° ENE visible
28 Feb -0.5 03:40:33 13° E 03:40:33 13° E 03:41:06 10° E visible
28 Feb -3.8 05:13:30 33° WSW 05:14:52 79° NNW 05:18:15 10° ENE visible
29 Feb -3.2 04:27:43 58° E 04:27:43 58° E 04:30:33 10° ENE visible
29 Feb -3.1 06:00:51 10° W 06:04:08 46° N 06:07:25 10° ENE visible
01 Mar -0.8 03:41:53 17° ENE 03:41:53 17° ENE 03:42:48 10° ENE visible
01 Mar -3.3 05:14:50 27° WNW 05:16:21 51° N 05:19:40 10° ENE visible
